Location: Balsareny
(41.8670°N, 1.8830°E)
Time: 09:38:55
(UTC+01:00)

Tiangong 2 - Visible Passes

Search period start: 17 February 2019 00:00
Search period end: 27 February 2019 00:00
Orbit: 381 x 390 km, 42.8° (Epoch: 16 February)

Date Brightness Start Highest point End Pass type
(mag) Time Alt. Az. Time Alt. Az. Time Alt. Az.
17 Feb 1.1 18:58:18 10° W 19:01:29 80° N 19:04:38 10° E visible
17 Feb 3.2 20:35:11 10° W 20:36:58 26° WSW 20:36:58 26° WSW visible
18 Feb 1.5 19:35:52 10° W 19:38:59 57° SSW 19:40:44 23° SE visible
19 Feb 3.0 20:13:43 10° W 20:16:16 22° SSW 20:16:51 21° SSW visible
20 Feb 2.4 19:14:13 10° W 19:17:10 36° SSW 19:20:06 10° SE visible
21 Feb 3.9 19:52:41 10° WSW 19:54:18 13° SW 19:55:55 10° S visible
